Albany, NY

1:33 PM EST on November 12, 2019 (GMT -0500)
Albany International

Weather History for KALB - September, 2019

Change the Weather History Date:

Wednesday, September 18, 2019

  Actual Average Record
Temperature  
Mean Temperature 59 °F 61 °F  
Max Temperature 69 °F 71 °F 91 °F (1891)
Min Temperature 48 °F 51 °F 35 °F (1986)
Degree Days  
Heating Degree Days 6 5  
Month to date heating degree days 40 53  
Since 1 July heating degree days 42 76  
Cooling Degree Days 0 1  
Month to date cooling degree days 24 42  
Year to date cooling degree days 747 585  
Growing Degree Days 8 (Base 50)    
Moisture  
Dew Point 45 °F    
Average Humidity 62    
Maximum Humidity 86    
Minimum Humidity 37    
Precipitation  
Precipitation 0.00 in 0.12 in 3.19 in (2012)
Month to date precipitation 1.80 1.87  
Year to date precipitation 30.78 28.02  
Sea Level Pressure  
Sea Level Pressure 30.29 in    
Wind  
Wind Speed 6 mph (North)    
Max Wind Speed 18 mph    
Max Gust Speed 23 mph    
Visibility 10 miles    
Events Fog    
T = Trace of Precipitation, MM = Missing Value Source: NWS Daily Summary

Daily Weather History Graph

Daily Weather History Graph

Search for Another Location

Airport or City:

Astronomy

Sep. 18, 2019 Rise Set
Actual Time 6:37 AM EDT 7:00 PM EDT
Civil Twilight 6:09 AM EDT 7:28 PM EDT
Nautical Twilight 5:36 AM EDT 8:01 PM EDT
Astronomical Twilight 5:02 AM EDT 8:35 PM EDT
Moon 9:27 PM EDT (9/18) 10:43 AM EDT (9/18)
Length of Visible Light 13h 18m
Length of Day
12h 22m
Waning Gibbous, 82% of the Moon is Illuminated
Sep 18
Waning Gibbous
Sep 21
Last Quarter
Sep 28
New
Oct 5
First Quarter
Oct 13
Full

Hourly Weather History & Observations

Time (EDT) Temp. Dew Point Humidity Pressure Visibility Wind Dir Wind Speed Gust Speed Precip Events Conditions
12:51 AM 53.1 °F 46.0 °F 77% 30.23 in 10.0 mi North 5.8 mph - N/A   Partly Cloudy
1:51 AM 52.0 °F 46.0 °F 80% 30.24 in 10.0 mi North 5.8 mph - N/A   Partly Cloudy
2:51 AM 51.1 °F 46.0 °F 83% 30.24 in 10.0 mi North 5.8 mph - N/A   Clear
3:51 AM 50.0 °F 44.1 °F 80% 30.24 in 10.0 mi NNW 4.6 mph - N/A   Clear
4:51 AM 48.9 °F 44.1 °F 83% 30.25 in 10.0 mi North 3.5 mph - N/A   Clear
5:51 AM 48.0 °F 45.0 °F 89% 30.27 in 10.0 mi North 4.6 mph - N/A Fog Patches of Fog
6:51 AM 48.0 °F 44.1 °F 86% 30.29 in 10.0 mi NNW 3.5 mph - N/A   Partly Cloudy
7:51 AM 52.0 °F 46.9 °F 83% 30.30 in 10.0 mi NNW 4.6 mph - N/A   Partly Cloudy
8:51 AM 55.0 °F 48.9 °F 80% 30.32 in 10.0 mi Variable 5.8 mph - N/A   Partly Cloudy
9:51 AM 60.1 °F 48.9 °F 67% 30.32 in 10.0 mi NE 5.8 mph - N/A   Partly Cloudy
10:51 AM 61.0 °F 46.9 °F 60% 30.31 in 10.0 mi NNE 11.5 mph - N/A   Scattered Clouds
11:51 AM 64.9 °F 46.0 °F 50% 30.30 in 10.0 mi NNE 13.8 mph 18.4 mph N/A   Scattered Clouds
12:51 PM 66.0 °F 45.0 °F 47% 30.30 in 10.0 mi NNE 12.7 mph - N/A   Scattered Clouds
1:51 PM 68.0 °F 43.0 °F 40% 30.30 in 10.0 mi North 12.7 mph 23.0 mph N/A   Scattered Clouds
2:51 PM 69.1 °F 44.1 °F 40% 30.29 in 10.0 mi North 8.1 mph - N/A   Scattered Clouds
3:51 PM 69.1 °F 42.1 °F 38% 30.29 in 10.0 mi NNE 6.9 mph 16.1 mph N/A   Partly Cloudy
4:51 PM 68.0 °F 44.1 °F 42% 30.29 in 10.0 mi NNW 9.2 mph - N/A   Partly Cloudy
5:51 PM 66.9 °F 44.1 °F 44% 30.29 in 10.0 mi North 8.1 mph - N/A   Partly Cloudy
6:51 PM 63.0 °F 43.0 °F 48% 30.28 in 10.0 mi NNE 3.5 mph - N/A   Partly Cloudy
7:51 PM 57.9 °F 45.0 °F 62% 30.30 in 10.0 mi ENE 3.5 mph - N/A   Partly Cloudy
8:51 PM 57.0 °F 45.0 °F 64% 30.32 in 10.0 mi Calm Calm - N/A   Partly Cloudy
9:51 PM 52.0 °F 45.0 °F 77% 30.32 in 10.0 mi NNW 3.5 mph - N/A   Partly Cloudy
10:51 PM 52.0 °F 46.0 °F 80% 30.33 in 10.0 mi Calm Calm - N/A   Partly Cloudy
11:51 PM 50.0 °F 44.1 °F 80% 30.35 in 10.0 mi Calm Calm - N/A   Partly Cloudy